Location: Little Italy
(37.8008°N, 122.4108°W)
Time: 08:00:56
(UTC+00:00)

Cosmos 1606 Rocket - Pass Details

Date: 29 October 2020
Orbit: 603 x 632 km, 82.5° (Epoch: 03 December)

Event Time Altitude Azimuth Distance (km) Brightness Sun altitude
Rises 13:13:39 0° 344° (NNW) 2,931 6.8 -16.1°
Reaches altitude 10° 13:16:00 10° 336° (NNW) 2,019 5.9 -15.7°
Maximum altitude 13:20:09 38° 269° (W) 958 4.0 -14.8°
Drops below altitude 10° 13:24:17 10° 200° (SSW) 2,002 6.0 -14.0°
Sets 13:26:36 0° 193° (SSW) 2,903 6.9 -13.6°
